Regional Weather Roundup
Issued by NWS

Home | Current Version | Previous Version | Text Only | Print | Product List | Glossary On
Versions: 1 2 3 4 5 6 7 8 9 10 11 12 13 14 15 16 17 18 19 20 21 22 23 24 25 26 27 28 29 30 31 32 33 34 35 36 37 38 39 40 41 42 43 44 45 46 47 48 49 50
000
ASUS43 KTOP 281759
RWRKS

WEATHER ROUNDUP FOR KANSAS
NATIONAL WEATHER SERVICE GOODLAND KS
100 PM CDT WED SEP 28 2016

NOTE:  "FAIR" INDICATES FEW OR NO CLOUDS BELOW 12,000 FEET WITH NO
SIGNIFICANT WEATHER AND/OR OBSTRUCTIONS TO VISIBILITY.

KSZ001>006-013>018-027>032-041>047-281900-
NORTHWEST KANSAS

CITY           SKY/WX    TMP DP  RH WIND       PRES   REMARKS
GOODLAND       SUNNY     79  41  25 NE7       30.25F
6HR MIN TEMP:  45; 6HR MAX TEMP:  79;

HAYS           SUNNY     73  43  33 NE12G17   30.20S
HILL CITY      SUNNY     74  47  38 NE8       30.22F
6HR MIN TEMP:  48; 6HR MAX TEMP:  74;

RUSSELL        SUNNY     71  41  33 N13       30.18S
6HR MIN TEMP:  51; 6HR MAX TEMP:  72;

$$

KSZ061>065-074>080-084>089-281900-
SOUTHWEST KANSAS

CITY           SKY/WX    TMP DP  RH WIND       PRES   REMARKS
DODGE CITY     SUNNY     81  45  28 NE13      30.18F
6HR MIN TEMP:  51; 6HR MAX TEMP:  82;

ELKHART          N/A     84  42  22 N6          N/A
GARDEN CITY    SUNNY     82  41  23 E12G18    30.19S
6HR MIN TEMP:  49; 6HR MAX TEMP:  82;

GREAT BEND     SUNNY     73  45  35 N10       30.18S
LIBERAL        SUNNY     84  45  24 NE9       30.20S
$$

KSZ066>073-081>083-090>101-281900-
SOUTHEAST KANSAS

CITY           SKY/WX    TMP DP  RH WIND       PRES   REMARKS
CHANUTE        LGT RAIN  73  43  33 N14       30.07S
6HR MIN TEMP:  56; 6HR MAX TEMP:  73; 6HR PCP: TRACE;

COFFEYVILLE    SUNNY     76  46  34 N17       30.06R
6HR MIN TEMP:  52; 6HR MAX TEMP:  77;

HUTCHINSON     SUNNY     73  42  32 N14G20    30.16R
6HR MIN TEMP:  57; 6HR MAX TEMP:  73;

MEDICINE LODGE   N/A     77  51  40 NE14      30.13R
NEWTON         SUNNY     71  42  35 N14G24    30.14R
PARSONS        SUNNY     75  40  28 N17G25    30.08R
6HR MIN TEMP:  50; 6HR MAX TEMP:  75;

WICHITA INTL   SUNNY     75  44  33 N14G25    30.13R
6HR MIN TEMP:  59; 6HR MAX TEMP:  75;

WICHITA JABRA  LGT RAIN  73  45  36 N14       30.13R
6HR MIN TEMP:  58; 6HR MAX TEMP:  73; 6HR PCP: TRACE;

WINFIELD       SUNNY     76  48  37 N17       30.11R
6HR MIN TEMP:  56; 6HR MAX TEMP:  77;

$$

KSZ007>012-019>026-033>040-048>060-102>105-281900-
NORTHEAST KANSAS

CITY           SKY/WX    TMP DP  RH WIND       PRES   REMARKS
CONCORDIA      SUNNY     70  44  39 N12       30.18S
6HR MIN TEMP:  54; 6HR MAX TEMP:  70; 6HR PCP: TRACE;

EMPORIA        SUNNY     70  45  40 N12G20    30.11R
6HR MIN TEMP:  55; 6HR MAX TEMP:  70;

LAWRENCE       SUNNY     67  48  50 N13       30.12R
6HR MIN TEMP:  56; 6HR MAX TEMP:  67;

MANHATTAN      SUNNY     67  47  48 N14G24    30.15R
6HR MIN TEMP:  53; 6HR MAX TEMP:  68;

OLATHE IND     SUNNY     65  47  52 N18G26    30.11R
6HR MIN TEMP:  55; 6HR MAX TEMP:  65;

OLATHE EXE     SUNNY     64  44  48 N18G25    30.10R
6HR MIN TEMP:  58; 6HR MAX TEMP:  65;

SALINA         SUNNY     74  39  28 N13       30.16S
6HR MIN TEMP:  55; 6HR MAX TEMP:  74;

TOPEKA BILLARD SUNNY     65  48  54 N10G22    30.13R
6HR MIN TEMP:  56; 6HR MAX TEMP:  65;

TOPEKA FORBES  SUNNY     67  48  50 N15       30.13R
6HR MIN TEMP:  58; 6HR MAX TEMP:  67;

$$




USA.gov is the U.S. government's official web portal to all federal, state and local government web resources and services.